FW4267 Weather Reports


Display with metric or nautical units.
time (UTC)temp
F
wind
direction
speed
MPH
gust
MPH
rain 1hr
in
rain 24hr
in
rain mn
in
humidity
%
barometer
mb
20260902043932 62 285 0.0 0.0 0.00 0.00 0.00 86 1021.1
20260902043122 62 286 0.0 1.0 0.00 0.00 0.00 87 1021.1
20260902042623 62 286 0.0 1.0 0.00 0.00 0.00 86 1021.1
20260902042120 62 286 0.0 0.0 0.00 0.00 0.00 87 1021.1
20260902041618 62 286 0.0 0.0 0.00 0.00 0.00 86 1021.1
20260902041119 62 286 0.0 0.0 0.00 0.00 0.00 86 1021.1
20260902040619 62 286 0.0 0.0 0.00 0.00 0.00 86 1021.2
20260902040433 62 286 0.0 0.0 0.00 0.00 0.00 85 1021.1
20260902040047 63 286 0.0 0.0 0.00 0.00 0.00 84 1021.1
20260902040040 63 286 0.0 0.0 0.00 0.00 0.00 85 1021.1
20260902034620 63 286 0.0 0.0 0.00 0.00 0.00 84 1021.0
20260902034120 63 286 0.0 0.0 0.00 0.00 0.00 84 1021.1
20260902033619 63 286 0.0 0.0 0.00 0.00 0.00 82 1021.1
20260902033438 64 286 0.0 0.0 0.00 0.00 0.00 82 1021.0
20260902032620 64 286 0.0 0.0 0.00 0.00 0.00 81 1021.2
20260902032429 64 286 0.0 1.0 0.00 0.00 0.00 81 1021.1
20260902031619 64 286 0.0 1.0 0.00 0.00 0.00 82 1021.1
20260902031122 64 288 0.0 1.0 0.00 0.00 0.00 82 1021.2
20260902030618 64 288 0.0 1.0 0.00 0.00 0.00 82 1021.0
20260902030124 64 286 0.0 1.0 0.00 0.00 0.00 83 1021.1
20260902025619 63 286 0.0 1.0 0.00 0.00 0.00 84 1021.1
20260902025118 63 286 0.0 1.0 0.00 0.00 0.00 84 1021.1
20260902024619 63 286 0.0 1.0 0.00 0.00 0.00 84 1021.1
20260902024116 63 286 0.0 1.0 0.00 0.00 0.00 84 1021.1
20260902023617 63 286 0.0 1.0 0.00 0.00 0.00 83 1021.1
20260902023116 63 286 0.0 1.0 0.00 0.00 0.00 83 1021.1
20260902022620 64 286 0.0 1.0 0.00 0.00 0.00 83 1021.0
20260902022130 64 286 0.0 1.0 0.00 0.00 0.00 83 1021.0
20260902021929 64 286 0.0 0.0 0.00 0.00 0.00 83 1020.9
20260902021133 64 286 0.0 0.0 0.00 0.00 0.00 82 1020.8
20260902020616 64 286 0.0 1.0 0.00 0.00 0.00 82 1020.8
20260902020117 65 286 0.0 1.0 0.00 0.00 0.00 82 1020.8
20260902015617 65 286 0.0 1.0 0.00 0.00 0.00 82 1020.9
20260902015118 64 286 1.0 1.0 0.00 0.00 0.00 82 1020.9
20260902014620 64 286 1.0 1.0 0.00 0.00 0.00 82 1021.0
20260902014119 65 286 1.0 1.0 0.00 0.00 0.00 81 1020.9
20260902013616 65 286 0.0 1.0 0.00 0.00 0.00 81 1020.8
20260902013248 65 286 1.0 1.0 0.00 0.00 0.00 81 1021.0
20260902013216 65 286 1.0 1.0 0.00 0.00 0.00 80 1020.8
20260902012432 65 286 0.0 1.0 0.00 0.00 0.00 81 1021.0
20260902011922 65 286 1.0 1.0 0.00 0.00 0.00 81 1020.9
20260902011116 65 286 1.0 2.0 0.00 0.00 0.00 80 1020.9
20260902010615 66 286 1.0 3.0 0.00 0.00 0.00 79 1020.9
20260902010422 66 286 2.0 3.0 0.00 0.00 0.00 80 1020.9
20260902005616 65 288 1.0 2.0 0.00 0.00 0.00 80 1020.9
20260902005116 65 285 2.0 2.0 0.00 0.00 0.00 81 1020.7
20260902004617 65 283 1.0 2.0 0.00 0.00 0.00 81 1020.7
20260902004115 65 285 2.0 2.0 0.00 0.00 0.00 80 1020.7
20260902003616 65 283 1.0 2.0 0.00 0.00 0.00 80 1020.7
20260902003114 65 285 2.0 2.0 0.00 0.00 0.00 80 1020.8
20260902002612 66 283 2.0 2.0 0.00 0.00 0.00 79 1020.8
20260902002114 66 285 2.0 2.0 0.00 0.00 0.00 79 1020.8
20260902001615 66 285 2.0 2.0 0.00 0.00 0.00 79 1020.9
20260902001243 66 281 2.0 2.0 0.00 0.00 0.00 80 1021.0
20260902001212 66 281 2.0 2.0 0.00 0.00 0.00 79 1020.9
20260902000114 66 279 2.0 2.0 0.00 0.00 0.00 79 1020.8
20260901235615 66 278 0.0 1.0 0.00 0.00 0.00 79 1020.8
20260901235115 66 278 1.0 1.0 0.00 0.00 0.00 78 1020.8
20260901234616 67 278 1.0 2.0 0.00 0.00 0.00 78 1020.8
20260901234114 67 278 1.0 2.0 0.00 0.00 0.00 77 1020.9
20260901233616 67 278 1.0 2.0 0.00 0.00 0.00 77 1020.8
20260901233126 67 278 1.0 2.0 0.00 0.00 0.00 76 1020.7
20260901232613 67 278 1.0 2.0 0.00 0.00 0.00 76 1020.7
20260901232114 67 278 1.0 1.0 0.00 0.00 0.00 76 1020.7
20260901231616 67 278 0.0 2.0 0.00 0.00 0.00 76 1020.7
20260901231113 67 278 0.0 2.0 0.00 0.00 0.00 76 1020.7
20260901230613 67 278 1.0 2.0 0.00 0.00 0.00 76 1020.7
20260901230125 67 278 1.0 2.0 0.00 0.00 0.00 76 1020.7
20260901225611 67 278 1.0 2.0 0.00 0.00 0.00 76 1020.8
20260901225116 67 278 1.0 1.0 0.00 0.00 0.00 76 1020.8
20260901224613 68 276 1.0 1.0 0.00 0.00 0.00 75 1020.8
20260901224113 68 276 1.0 1.0 0.00 0.00 0.00 75 1020.8
20260901223612 69 276 0.0 1.0 0.00 0.00 0.00 74 1020.7
20260901223113 69 278 0.0 1.0 0.00 0.00 0.00 73 1020.8
20260901222613 69 278 1.0 1.0 0.00 0.00 0.00 72 1020.6
20260901222112 69 276 1.0 1.0 0.00 0.00 0.00 71 1020.6
20260901221615 70 278 0.0 1.0 0.00 0.00 0.00 71 1020.7
20260901221232 71 276 0.0 1.0 0.00 0.00 0.00 70 1020.8
20260901221210 70 276 0.0 1.0 0.00 0.00 0.00 70 1020.6
20260901220124 71 276 0.0 1.0 0.00 0.00 0.00 69 1020.7
20260901215612 72 276 0.0 1.0 0.00 0.00 0.00 67 1020.7
20260901215111 72 276 0.0 1.0 0.00 0.00 0.00 66 1020.7
20260901214612 72 278 0.0 1.0 0.00 0.00 0.00 66 1020.7
20260901214112 73 276 0.0 1.0 0.00 0.00 0.00 66 1020.6
20260901213613 73 276 0.0 1.0 0.00 0.00 0.00 66 1020.7
20260901213110 72 276 0.0 1.0 0.00 0.00 0.00 66 1020.6
20260901212920 72 276 0.0 1.0 0.00 0.00 0.00 66 1020.5
20260901212112 72 276 0.0 0.0 0.00 0.00 0.00 65 1020.5
20260901211611 73 276 0.0 1.0 0.00 0.00 0.00 65 1020.4
20260901211110 73 276 0.0 1.0 0.00 0.00 0.00 64 1020.3
20260901210613 73 276 0.0 0.0 0.00 0.00 0.00 64 1020.3
20260901210117 74 276 0.0 0.0 0.00 0.00 0.00 63 1020.3
20260901205612 74 276 0.0 0.0 0.00 0.00 0.00 64 1020.4
20260901205110 74 276 0.0 1.0 0.00 0.00 0.00 62 1020.3
20260901204614 74 282 0.0 1.0 0.00 0.00 0.00 61 1020.3
20260901204110 75 282 0.0 1.0 0.00 0.00 0.00 61 1020.3
20260901203611 75 282 0.0 2.0 0.00 0.00 0.00 61 1020.2
20260901203110 75 283 1.0 2.0 0.00 0.00 0.00 60 1020.2
20260901202610 75 285 1.0 2.0 0.00 0.00 0.00 60 1020.0
20260901202110 75 286 1.0 3.0 0.00 0.00 0.00 60 1020.2
20260901201609 76 288 2.0 3.0 0.00 0.00 0.00 59 1020.0
20260901201111 76 275 1.0 2.0 0.00 0.00 0.00 59 1019.9
20260901200611 76 279 1.0 1.0 0.00 0.00 0.00 59 1019.7
20260901200123 76 279 0.0 1.0 0.00 0.00 0.00 59 1019.7
20260901195622 76 292 0.0 2.0 0.00 0.00 0.00 58 1019.7
20260901195109 76 292 0.0 2.0 0.00 0.00 0.00 58 1019.5
20260901194610 76 289 1.0 1.0 0.00 0.00 0.00 58 1019.5
20260901194111 76 286 1.0 2.0 0.00 0.00 0.00 58 1019.5
20260901193609 76 293 1.0 2.0 0.00 0.00 0.00 58 1019.5
20260901193109 76 281 1.0 1.0 0.00 0.00 0.00 57 1019.4
20260901192610 77 281 0.0 1.0 0.00 0.00 0.00 57 1019.4
20260901192110 77 268 0.0 0.0 0.00 0.00 0.00 57 1019.2
20260901191609 77 268 0.0 0.0 0.00 0.00 0.00 57 1019.2
20260901191110 77 266 0.0 0.0 0.00 0.00 0.00 56 1019.2
20260901190621 77 266 0.0 0.0 0.00 0.00 0.00 56 1019.1
20260901190108 77 266 0.0 0.0 0.00 0.00 0.00 56 1019.1
20260901185918 78 266 0.0 0.0 0.00 0.00 0.00 56 1019.0
20260901185109 78 266 0.0 0.0 0.00 0.00 0.00 55 1018.9
20260901184608 78 266 0.0 0.0 0.00 0.00 0.00 55 1018.9
20260901184109 78 266 0.0 1.0 0.00 0.00 0.00 55 1018.9
20260901183918 78 264 0.0 1.0 0.00 0.00 0.00 54 1018.8
20260901183108 78 264 0.0 1.0 0.00 0.00 0.00 54 1018.8
20260901182606 79 264 0.0 1.0 0.00 0.00 0.00 54 1018.8
20260901182200 79 264 0.0 1.0 0.00 0.00 0.00 53 1018.7
20260901181106 80 264 0.0 1.0 0.00 0.00 0.00 52 1018.7
20260901180608 80 264 0.0 1.0 0.00 0.00 0.00 52 1018.6
20260901180120 80 257 0.0 1.0 0.00 0.00 0.00 52 1018.7
20260901175608 80 257 0.0 1.0 0.00 0.00 0.00 52 1018.7
20260901175212 80 257 0.0 1.0 0.00 0.00 0.00 52 1018.7
20260901174118 80 296 0.0 1.0 0.00 0.00 0.00 51 1018.6
20260901173606 81 305 0.0 0.0 0.00 0.00 0.00 50 1018.6
20260901173106 81 305 0.0 0.0 0.00 0.00 0.00 49 1018.5
20260901172605 81 306 0.0 0.0 0.00 0.00 0.00 49 1018.6
20260901172107 81 306 0.0 0.0 0.00 0.00 0.00 48 1018.6
20260901171916 81 306 0.0 1.0 0.00 0.00 0.00 48 1018.5
20260901171106 81 306 0.0 1.0 0.00 0.00 0.00 48 1018.5
20260901170618 81 337 0.0 1.0 0.00 0.00 0.00 48 1018.5
20260901170118 81 344 0.0 2.0 0.00 0.00 0.00 48 1018.4
20260901165605 81 286 1.0 3.0 0.00 0.00 0.00 48 1018.4
20260901165104 81 276 1.0 3.0 0.00 0.00 0.00 48 1018.4
20260901164604 81 327 1.0 2.0 0.00 0.00 0.00 47 1018.3
20260901164104 82 16 1.0 2.0 0.00 0.00 0.00 47 1018.3
20260901163604 82 293 0.0 3.0 0.00 0.00 0.00 47 1018.4
20260901163106 82 245 0.0 4.0 0.00 0.00 0.00 47 1018.3
20260901162614 82 314 0.0 5.0 0.00 0.00 0.00 47 1018.3
20260901162103 83 313 2.0 5.0 0.00 0.00 0.00 47 1018.4
20260901161604 83 283 1.0 2.0 0.00 0.00 0.00 47 1018.3
20260901161105 83 343 0.0 2.0 0.00 0.00 0.00 46 1018.4
20260901160604 83 358 1.0 3.0 0.00 0.00 0.00 45 1018.3
20260901160117 83 80 1.0 3.0 0.00 0.00 0.00 45 1018.3
20260901155605 84 28 0.0 4.0 0.00 0.00 0.00 45 1018.3
20260901155539 84 353 1.0 5.0 0.00 0.00 0.00 44 1018.2
20260901155533 84 293 1.0 5.0 0.00 0.00 0.00 45 1018.3
20260901154105 84 82 0.0 4.0 0.00 0.00 0.00 44 1018.2
20260901153603 84 89 0.0 2.0 0.00 0.00 0.00 44 1018.2
20260901153104 84 16 0.0 1.0 0.00 0.00 0.00 42 1018.2
20260901152602 84 17 0.0 3.0 0.00 0.00 0.00 42 1018.2
20260901152415 84 326 0.0 3.0 0.00 0.00 0.00 42 1018.2
20260901151604 85 56 0.0 4.0 0.00 0.00 0.00 42 1018.3
20260901151116 84 13 0.0 4.0 0.00 0.00 0.00 43 1018.3
20260901150604 84 82 0.0 4.0 0.00 0.00 0.00 43 1018.3
20260901150115 84 104 2.0 4.0 0.00 0.00 0.00 43 1018.4
20260901145914 84 320 1.0 4.0 0.00 0.00 0.00 42 1018.3
20260901145102 85 258 2.0 4.0 0.00 0.00 0.00 41 1018.4
20260901144602 85 353 0.0 2.0 0.00 0.00 0.00 42 1018.4
20260901144104 85 72 0.0 0.0 0.00 0.00 0.00 42 1018.4
20260901143602 85 72 0.0 3.0 0.00 0.00 0.00 42 1018.5
20260901143418 85 271 0.0 3.0 0.00 0.00 0.00 42 1018.4
20260901142602 85 135 0.0 2.0 0.00 0.00 0.00 44 1018.4
20260901142102 85 76 0.0 3.0 0.00 0.00 0.00 44 1018.4
20260901141601 85 288 1.0 3.0 0.00 0.00 0.00 43 1018.5
20260901141101 85 268 0.0 2.0 0.00 0.00 0.00 43 1018.5
20260901140600 85 0 0.0 2.0 0.00 0.00 0.00 44 1018.5
20260901140111 85 49 0.0 5.0 0.00 0.00 0.00 43 1018.6
20260901135601 84 73 2.0 5.0 0.00 0.00 0.00 45 1018.6
20260901135242 85 358 1.0 2.0 0.00 0.00 0.00 44 1018.6
20260901135207 84 324 0.0 5.0 0.00 0.00 0.00 44 1018.5
20260901134101 85 54 0.0 2.0 0.00 0.00 0.00 44 1018.7
20260901133602 85 85 0.0 3.0 0.00 0.00 0.00 46 1018.7
20260901133101 84 353 0.0 4.0 0.00 0.00 0.00 46 1018.9
20260901132600 84 274 2.0 4.0 0.00 0.00 0.00 45 1018.8
20260901132102 85 45 0.0 3.0 0.00 0.00 0.00 47 1018.9
20260901131601 84 285 0.0 3.0 0.00 0.00 0.00 46 1018.9
20260901131100 84 71 1.0 4.0 0.00 0.00 0.00 47 1018.9
20260901130600 83 282 0.0 4.0 0.00 0.00 0.00 50 1019.0
20260901130428 83 289 2.0 4.0 0.00 0.00 0.00 48 1019.0
20260901125600 83 289 1.0 3.0 0.00 0.00 0.00 48 1019.0
20260901125100 83 293 1.0 3.0 0.00 0.00 0.00 49 1018.9
20260901124558 83 104 0.0 3.0 0.00 0.00 0.00 49 1019.1
20260901124101 82 114 1.0 7.0 0.00 0.00 0.00 50 1019.1
20260901123558 82 82 4.0 7.0 0.00 0.00 0.00 50 1019.1
20260901123059 82 85 4.0 9.0 0.00 0.00 0.00 50 1019.1
20260901122600 82 78 3.0 9.0 0.00 0.00 0.00 50 1019.2
20260901122059 82 131 2.0 4.0 0.00 0.00 0.00 50 1019.3
20260901121600 82 75 0.0 7.0 0.00 0.00 0.00 49 1019.2
20260901121059 82 125 2.0 7.0 0.00 0.00 0.00 50 1019.3
20260901120559 82 117 0.0 3.0 0.00 0.00 0.00 50 1019.6
20260901120112 82 56 1.0 4.0 0.00 0.00 0.00 50 1019.6
20260901115558 81 117 2.0 5.0 0.00 0.00 0.00 51 1019.6
20260901115057 81 127 2.0 5.0 0.00 0.00 0.00 50 1019.7
20260901114559 81 351 0.0 4.0 0.00 0.00 0.00 50 1019.7
20260901114058 81 320 0.0 6.0 0.00 0.00 0.00 51 1019.7
20260901113556 81 127 2.0 6.0 0.00 0.00 0.00 51 1019.9
20260901113100 81 69 0.0 3.0 0.00 0.00 0.00 51 1019.8
20260901112557 81 20 2.0 5.0 0.00 0.00 0.00 51 1019.9
20260901112059 80 104 0.0 6.0 0.00 0.00 0.00 52 1019.9
20260901111557 80 94 3.0 6.0 0.00 0.00 0.00 52 1019.9
20260901111056 79 78 3.0 6.0 0.00 0.00 0.00 53 1020.0
20260901110904 80 89 3.0 6.0 0.00 0.00 0.00 52 1020.0
20260901110107 80 45 1.0 7.0 0.00 0.00 0.00 53 1020.2
20260901105558 79 117 4.0 7.0 0.00 0.00 0.00 54 1020.3
20260901105109 79 100 2.0 5.0 0.00 0.00 0.00 52 1020.4
20260901104557 79 72 2.0 9.0 0.00 0.00 0.00 55 1020.4
20260901104055 78 97 4.0 9.0 0.00 0.00 0.00 54 1020.4
20260901103914 78 69 3.0 10.0 0.00 0.00 0.00 55 1020.5
20260901103056 78 82 4.0 10.0 0.00 0.00 0.00 56 1020.5
20260901102556 78 117 4.0 6.0 0.00 0.00 0.00 55 1020.6
20260901102412 79 252 2.0 6.0 0.00 0.00 0.00 55 1020.6
20260901101906 78 78 0.0 5.0 0.00 0.00 0.00 55 1020.7
20260901101059 78 123 4.0 10.0 0.00 0.00 0.00 56 1020.7
20260901100555 78 90 4.0 10.0 0.00 0.00 0.00 56 1020.8
20260901100231 77 111 3.0 5.0 0.00 0.00 0.00 58 1020.9
20260901100159 78 117 3.0 5.0 0.00 0.00 0.00 56 1020.8
20260901095055 76 100 1.0 7.0 0.00 0.00 0.00 58 1020.8
20260901094557 76 107 3.0 7.0 0.00 0.00 0.00 58 1020.9
20260901094055 76 72 1.0 6.0 0.00 0.00 0.00 61 1021.0
20260901093607 75 106 1.0 6.0 0.00 0.00 0.00 60 1021.0
20260901093055 76 86 2.0 5.0 0.00 0.00 0.00 59 1021.1
20260901092557 75 99 2.0 5.0 0.00 0.00 0.00 60 1021.0
20260901092054 76 96 0.0 5.0 0.00 0.00 0.00 61 1021.1
20260901091556 75 106 1.0 5.0 0.00 0.00 0.00 61 1021.0
20260901091054 75 89 2.0 3.0 0.00 0.00 0.00 63 1021.0
20260901090553 74 102 2.0 3.0 0.00 0.00 0.00 63 1021.0
20260901090419 74 113 1.0 3.0 0.00 0.00 0.00 65 1020.9
20260901085555 73 86 2.0 3.0 0.00 0.00 0.00 66 1021.0
20260901085055 74 87 2.0 3.0 0.00 0.00 0.00 64 1021.0
20260901084556 73 83 1.0 3.0 0.00 0.00 0.00 67 1020.9
20260901084054 72 182 1.0 3.0 0.00 0.00 0.00 67 1021.0
20260901083552 72 79 1.0 3.0 0.00 0.00 0.00 69 1020.9
20260901083052 71 92 2.0 4.0 0.00 0.00 0.00 71 1020.9
20260901082553 71 83 2.0 4.0 0.00 0.00 0.00 69 1020.8
20260901082405 71 71 1.0 4.0 0.00 0.00 0.00 69 1020.9
20260901081553 71 117 2.0 4.0 0.00 0.00 0.00 69 1020.8
20260901081054 70 100 1.0 6.0 0.00 0.00 0.00 70 1020.9
20260901080607 70 85 2.0 6.0 0.00 0.00 0.00 71 1020.8
20260901080105 71 69 1.0 3.0 0.00 0.00 0.00 73 1020.9
20260901075553 70 89 1.0 4.0 0.00 0.00 0.00 73 1020.9
20260901075054 70 104 1.0 4.0 0.00 0.00 0.00 75 1020.9
20260901074551 69 83 1.0 4.0 0.00 0.00 0.00 76 1020.9
20260901074051 69 83 2.0 2.0 0.00 0.00 0.00 76 1020.9
20260901073551 69 51 1.0 3.0 0.00 0.00 0.00 78 1020.9
20260901073053 68 83 1.0 3.0 0.00 0.00 0.00 78 1021.0
20260901072901 67 103 1.0 3.0 0.00 0.00 0.00 80 1021.0
20260901072105 67 92 1.0 3.0 0.00 0.00 0.00 80 1021.0
20260901071551 67 93 1.0 2.0 0.00 0.00 0.00 81 1020.9
20260901071053 66 90 0.0 3.0 0.00 0.00 0.00 82 1020.9
20260901070551 66 92 1.0 3.0 0.00 0.00 0.00 81 1021.0
20260901070104 67 63 1.0 2.0 0.00 0.00 0.00 81 1020.9
20260901065550 66 71 0.0 1.0 0.00 0.00 0.00 81 1020.9
20260901065050 66 71 0.0 1.0 0.00 0.00 0.00 81 1021.0
20260901064551 65 296 0.0 0.0 0.00 0.00 0.00 83 1020.9
20260901064050 64 296 0.0 0.0 0.00 0.00 0.00 85 1021.0
20260901063552 63 295 0.0 0.0 0.00 0.00 0.00 85 1021.1
20260901063356 62 295 0.0 0.0 0.00 0.00 0.00 89 1021.1
20260901062552 61 295 0.0 0.0 0.00 0.00 0.00 92 1021.0
20260901062050 60 295 0.0 0.0 0.00 0.00 0.00 93 1021.0
20260901061551 59 295 0.0 0.0 0.00 0.00 0.00 92 1021.0
20260901061050 58 295 0.0 0.0 0.00 0.00 0.00 93 1021.0
20260901060552 58 295 0.0 0.0 0.00 0.00 0.00 93 1020.9
20260901060106 58 295 0.0 0.0 0.00 0.00 0.00 93 1020.9
20260901055549 57 295 0.0 0.0 0.00 0.00 0.00 93 1020.9
20260901055050 57 295 0.0 0.0 0.00 0.00 0.00 93 1020.8
20260901054551 57 295 0.0 0.0 0.00 0.00 0.00 93 1020.7
20260901054051 57 295 0.0 0.0 0.00 0.00 0.00 92 1020.7
20260901053549 57 295 0.0 0.0 0.00 0.00 0.00 92 1020.7
20260901053359 57 295 0.0 0.0 0.00 0.00 0.00 92 1020.7
20260901052551 57 295 0.0 0.0 0.00 0.00 0.00 92 1020.7
20260901052049 57 295 0.0 0.0 0.00 0.00 0.00 92 1020.6
20260901051550 57 295 0.0 0.0 0.00 0.00 0.00 92 1020.5
20260901051048 57 295 0.0 0.0 0.00 0.00 0.00 92 1020.7
20260901050550 57 295 0.0 0.0 0.00 0.00 0.00 92 1020.5
20260901045549 57 295 0.0 0.0 0.00 0.00 0.00 91 1020.6
20260901045404 57 295 0.0 0.0 0.00 0.00 0.00 91 1020.6
20260901044856 57 295 0.0 0.0 0.00 0.00 0.00 91 1020.6
20260901044049 58 295 0.0 0.0 0.00 0.00 0.00 91 1020.5